Rome Ciampino, Italy

2:20 PM CET on February 08, 2016 (GMT +0100)
Ciampino

Weather History for LIRA - September, 2014

Change the Weather History Date:

Friday, September 5, 2014

  Actual Average Record
Temperature  
Mean Temperature 72 °F -  
Max Temperature 81 °F 78 °F 89 °F (2006)
Min Temperature 64 °F 58 °F 55 °F (2000)
Cooling Degree Days 8    
Growing Degree Days 22 (Base 50)    
Moisture  
Dew Point 62 °F    
Average Humidity 72    
Maximum Humidity 94    
Minimum Humidity 37    
Precipitation  
Precipitation 0.00 in 0.09 in - ()
Sea Level Pressure  
Sea Level Pressure 29.84 in    
Wind  
Wind Speed 3 mph ()    
Max Wind Speed 13 mph    
Max Gust Speed -    
Visibility 6.5 miles    
Events      
Averages and records for this station are not official NWS values.
T = Trace of Precipitation, MM = Missing Value Source: Averaged Metar Reports

Daily Weather History Graph

Daily Weather History Graph

Search for Another Location

Airport or City:

Trip Planner

Search our weather history database for the weather conditions in past years. The results will help you decide how hot, cold, wet, or windy it might be!

Date:

Astronomy

Sep. 05, 2014 Rise Set
Actual Time 6:39 AM CEST 7:36 PM CEST
Civil Twilight 6:11 AM CEST 8:05 PM CEST
Nautical Twilight 5:37 AM CEST 8:38 PM CEST
Astronomical Twilight 5:01 AM CEST 9:14 PM CEST
Moon 4:54 PM CEST (9/5) 2:12 AM CEST (9/5)
Length of Visible Light 13h 54m
Length of Day
12h 57m
Waxing Gibbous, 81% of the Moon is Illuminated
Sep 5
Waxing Gibbous
Sep 9
Full
Sep 16
Last Quarter
Sep 24
New
Oct 1
First Quarter

Hourly Weather History & Observations

Time (CEST) Temp. Heat Index Dew Point Humidity Pressure Visibility Wind Dir Wind Speed Gust Speed Precip Events Conditions
12:45 AM 69.8 °F - 64.4 °F 83% 29.86 in 6.2 mi Calm Calm - N/A   Scattered Clouds
1:15 AM 68.0 °F - 62.6 °F 83% 29.86 in 6.2 mi East 1.2 mph - N/A   Scattered Clouds
1:45 AM 68.0 °F - 64.4 °F 88% 29.86 in 6.2 mi Calm Calm - N/A   Scattered Clouds
2:00 AM 69 °F - 64 °F 79% 29.87 in 6 mi Calm Calm - -   Scattered Clouds
2:15 AM 68.0 °F - 62.6 °F 83% 29.86 in 6.2 mi Calm Calm - N/A   Scattered Clouds
2:45 AM 68.0 °F - 62.6 °F 83% 29.86 in 6.2 mi Calm Calm - N/A   Scattered Clouds
3:15 AM 68.0 °F - 62.6 °F 83% 29.86 in 6.2 mi Calm Calm - N/A   Partly Cloudy
3:45 AM 68.0 °F - 64.4 °F 88% 29.86 in 6.2 mi Calm Calm - N/A   Partly Cloudy
4:15 AM 66.2 °F - 62.6 °F 88% 29.86 in - SE 1.2 mph - N/A   Clear
4:45 AM 66.2 °F - 62.6 °F 88% 29.86 in - Calm Calm - N/A   Clear
5:00 AM 66 °F - 63 °F 87% 29.87 in 9 mi Calm Calm - -  
5:15 AM 66.2 °F - 62.6 °F 88% 29.86 in - Calm Calm - N/A   Clear
5:45 AM 66.2 °F - 62.6 °F 88% 29.86 in 6.2 mi Calm Calm - N/A   Partly Cloudy
6:15 AM 64.4 °F - 62.6 °F 94% 29.86 in 6.2 mi Calm Calm - N/A   Scattered Clouds
6:45 AM 64.4 °F - 62.6 °F 94% 29.86 in 6.2 mi NE 3.5 mph - N/A   Scattered Clouds
7:15 AM 64.4 °F - 62.6 °F 94% 29.86 in 6.2 mi NE 3.5 mph - N/A   Scattered Clouds
7:45 AM 66.2 °F - 64.4 °F 94% 29.86 in 6.2 mi NNE 2.3 mph - N/A   Scattered Clouds
8:00 AM 66 °F - 64 °F 91% 29.88 in 9 mi NNE 2.3 mph - -   Partly Cloudy
8:15 AM 68.0 °F - 64.4 °F 88% 29.89 in 6.2 mi NNE 4.6 mph - N/A   Partly Cloudy
8:45 AM 69.8 °F - 64.4 °F 83% 29.89 in 6.2 mi North 4.6 mph - N/A   Partly Cloudy
9:15 AM 71.6 °F - 64.4 °F 78% 29.89 in 6.2 mi NNE 4.6 mph - N/A   Partly Cloudy
9:45 AM 71.6 °F - 64.4 °F 78% 29.89 in 6.2 mi NNE 4.6 mph - N/A   Partly Cloudy
10:15 AM 73.4 °F - 62.6 °F 69% 29.89 in 6.2 mi NNE 4.6 mph - N/A   Partly Cloudy
10:45 AM 73.4 °F - 64.4 °F 73% 29.89 in 6.2 mi North 3.5 mph - N/A   Partly Cloudy
11:00 AM 74 °F - 64 °F 62% 29.88 in 9 mi North 3.5 mph - -   Scattered Clouds
11:15 AM 75.2 °F - 62.6 °F 65% 29.86 in 6.2 mi NNE 3.5 mph - N/A   Partly Cloudy
11:45 AM 75.2 °F - 60.8 °F 61% 29.86 in 6.2 mi NNW 4.6 mph - N/A   Partly Cloudy
12:15 PM 77.0 °F - 60.8 °F 57% 29.86 in 6.2 mi NW 5.8 mph - N/A   Scattered Clouds
12:45 PM 77.0 °F - 59.0 °F 54% 29.86 in 6.2 mi NNW 4.6 mph - N/A   Scattered Clouds
1:15 PM 78.8 °F - 59.0 °F 51% 29.83 in 6.2 mi NW 4.6 mph - N/A   Scattered Clouds
1:45 PM 78.8 °F - 57.2 °F 47% 29.83 in 6.2 mi North 4.6 mph - N/A   Scattered Clouds
2:00 PM 79 °F - 58 °F 37% 29.84 in 9 mi North 4.6 mph - -   Partly Cloudy
2:15 PM 78.8 °F - 55.4 °F 44% 29.83 in 6.2 mi NNW 5.8 mph - N/A   Scattered Clouds
2:45 PM 78.8 °F - 57.2 °F 47% 29.83 in 6.2 mi NW 9.2 mph - N/A   Scattered Clouds
3:15 PM 80.6 °F 81.1 °F 59.0 °F 48% 29.83 in 6.2 mi West 9.2 mph - N/A   Scattered Clouds
3:45 PM 78.8 °F - 60.8 °F 54% 29.83 in 6.2 mi West 9.2 mph - N/A   Partly Cloudy
4:15 PM 78.8 °F - 60.8 °F 54% 29.83 in 6.2 mi West 12.7 mph - N/A   Partly Cloudy
4:45 PM 77.0 °F - 60.8 °F 57% 29.80 in 6.2 mi West 11.5 mph - N/A   Partly Cloudy
5:00 PM 77 °F - 61 °F 48% 29.81 in 9 mi West 11.5 mph - -   Scattered Clouds
5:15 PM 77.0 °F - 60.8 °F 57% 29.80 in 6.2 mi West 11.5 mph - N/A   Scattered Clouds
5:45 PM 77.0 °F - 60.8 °F 57% 29.80 in 6.2 mi West 10.4 mph - N/A   Scattered Clouds
6:15 PM 75.2 °F - 62.6 °F 65% 29.80 in 6.2 mi West 9.2 mph - N/A   Scattered Clouds
6:45 PM 75.2 °F - 62.6 °F 65% 29.80 in 6.2 mi West 6.9 mph - N/A   Scattered Clouds
7:15 PM 73.4 °F - 62.6 °F 69% 29.80 in 6.2 mi West 4.6 mph - N/A   Partly Cloudy
7:45 PM 73.4 °F - 62.6 °F 69% 29.80 in 6.2 mi West 3.5 mph - N/A   Scattered Clouds
8:00 PM 74 °F - 62 °F 58% 29.80 in 9 mi West 3.5 mph - -   Partly Cloudy
8:15 PM 73.4 °F - 62.6 °F 69% 29.80 in 6.2 mi SSE 2.3 mph - N/A   Scattered Clouds
8:45 PM 73.4 °F - 64.4 °F 73% 29.80 in 6.2 mi South 3.5 mph - N/A   Partly Cloudy
9:15 PM 71.6 °F - 64.4 °F 78% 29.83 in 6.2 mi SW 2.3 mph - N/A   Partly Cloudy
9:45 PM 69.8 °F - 62.6 °F 78% 29.83 in 6.2 mi SSW 2.3 mph - N/A   Partly Cloudy
10:15 PM 69.8 °F - 62.6 °F 78% 29.80 in 6.2 mi SSW 2.3 mph - N/A   Partly Cloudy
10:45 PM 69.8 °F - 64.4 °F 83% 29.80 in 6.2 mi South 2.3 mph - N/A   Partly Cloudy
11:00 PM 70 °F - 64 °F 75% 29.82 in 7 mi South 2.3 mph - -   Scattered Clouds
11:15 PM 69.8 °F - 64.4 °F 83% 29.83 in 6.2 mi SW 1.2 mph - N/A   Scattered Clouds
11:45 PM 69.8 °F - 66.2 °F 88% 29.83 in 6.2 mi Calm Calm - N/A   Scattered Clouds